Saint Charles, IL

10:02 PM CST on December 02, 2016 (GMT -0600)
Du Page

Weather History for KDPA - April, 2014

Change the Weather History Date:

Saturday, April 19, 2014

  Actual Average Record
Temperature  
Mean Temperature 50 °F 51 °F  
Max Temperature 69 °F 62 °F 79 °F (2005)
Min Temperature 30 °F 39 °F 30 °F (1999)
Degree Days  
Heating Degree Days 15 15  
Month to date heating degree days 367 337  
Since 1 July heating degree days 7233 5928  
Cooling Degree Days 0 0  
Month to date cooling degree days 0 0  
Year to date cooling degree days 0 0  
Moisture  
Dew Point 33 °F    
Average Humidity 51    
Maximum Humidity 82    
Minimum Humidity 27    
Precipitation  
Precipitation 0.00 in 0.11 in 0.61 in (2009)
Month to date precipitation 1.11 1.91  
Year to date precipitation 2.78 7.00  
Sea Level Pressure  
Sea Level Pressure 30.30 in    
Wind  
Wind Speed 9 mph (ESE)    
Max Wind Speed 17 mph    
Max Gust Speed 22 mph    
Visibility 10 miles    
Events      
T = Trace of Precipitation, MM = Missing Value Source: NWS Daily Summary

Daily Weather History Graph

Daily Weather History Graph

Search for Another Location

Airport or City:

Trip Planner

Search our weather history database for the weather conditions in past years. The results will help you decide how hot, cold, wet, or windy it might be!

Date:

Astronomy

Apr. 19, 2014 Rise Set
Actual Time 6:06 AM CDT 7:38 PM CDT
Civil Twilight 5:37 AM CDT 8:07 PM CDT
Nautical Twilight 5:01 AM CDT 8:43 PM CDT
Astronomical Twilight 4:24 AM CDT 9:21 PM CDT
Moon No Moon Rise 9:22 AM CDT (4/19)
Length of Visible Light 14h 30m
Length of Day
13h 32m
Waning Gibbous, 78% of the Moon is Illuminated
Apr 19
Waning Gibbous
Apr 22
Last Quarter
Apr 29
New
May 6
First Quarter
May 14
Full

Hourly Weather History & Observations

Time (CDT) Temp. Windchill Dew Point Humidity Pressure Visibility Wind Dir Wind Speed Gust Speed Precip Events Conditions
12:52 AM 36.0 °F 29.6 °F 26.1 °F 67% 30.37 in 10.0 mi NE 8.1 mph - N/A   Clear
1:52 AM 37.0 °F 30.4 °F 27.0 °F 67% 30.35 in 10.0 mi NE 9.2 mph - N/A   Clear
2:52 AM 37.0 °F 30.4 °F 28.0 °F 70% 30.36 in 10.0 mi ENE 9.2 mph - N/A   Clear
4:52 AM 30.9 °F 25.2 °F 26.1 °F 82% 30.37 in 10.0 mi NNE 5.8 mph - N/A   Clear
5:52 AM 33.1 °F 27.7 °F 28.0 °F 82% 30.37 in 10.0 mi NE 5.8 mph - N/A   Clear
7:52 AM 41.0 °F 33.5 °F 30.9 °F 67% 30.38 in 10.0 mi East 13.8 mph - N/A   Clear
8:52 AM 45.0 °F 40.6 °F 33.1 °F 63% 30.38 in 10.0 mi East 8.1 mph - N/A   Clear
9:52 AM 50.0 °F - 34.0 °F 54% 30.37 in 10.0 mi ENE 11.5 mph - N/A   Clear
10:52 AM 55.0 °F - 35.1 °F 47% 30.35 in 10.0 mi ESE 9.2 mph - N/A   Clear
11:52 AM 57.9 °F - 35.1 °F 42% 30.34 in 10.0 mi East 6.9 mph - N/A   Clear
12:52 PM 62.1 °F - 32.0 °F 32% 30.32 in 10.0 mi SSE 9.2 mph - N/A   Clear
1:52 PM 64.9 °F - 35.1 °F 33% 30.30 in 10.0 mi East 5.8 mph - N/A   Clear
2:52 PM 66.9 °F - 34.0 °F 30% 30.27 in 10.0 mi SE 10.4 mph - N/A   Clear
4:52 PM 68.0 °F - 33.1 °F 27% 30.23 in 10.0 mi South 13.8 mph - N/A   Clear
5:52 PM 66.9 °F - 34.0 °F 30% 30.22 in 10.0 mi SSE 11.5 mph - N/A   Clear
6:52 PM 66.0 °F - 35.1 °F 32% 30.21 in 10.0 mi SSE 11.5 mph - N/A   Clear
7:52 PM 59.0 °F - 35.1 °F 41% 30.22 in 10.0 mi SSE 6.9 mph - N/A   Clear
8:52 PM 57.9 °F - 36.0 °F 44% 30.22 in 10.0 mi ESE 5.8 mph - N/A   Clear
9:52 PM 57.0 °F - 37.9 °F 49% 30.23 in 10.0 mi SE 9.2 mph - N/A   Clear
10:52 PM 55.9 °F - 37.0 °F 49% 30.22 in 10.0 mi SE 10.4 mph - N/A   Clear
11:52 PM 54.0 °F - 37.0 °F 53% 30.23 in 10.0 mi SSE 9.2 mph - N/A   Clear